Regional Weather Roundup
Issued by NWS

Home | Current Version | Previous Version | Text Only | Print | Product List | Glossary On
Versions: 1 2 3 4 5 6 7 8 9 10 11 12 13 14 15 16 17 18 19 20 21 22 23 24 25 26 27 28 29 30 31 32 33 34 35 36 37 38 39 40 41 42 43 44 45 46 47 48 49 50
804
ASUS43 KLSX 052210
RWRMO

WEATHER SUMMARY FOR MISSOURI
NATIONAL WEATHER SERVICE SPRINGFIELD MO
400 PM CST FRI FEB 05 2016

NOTE: "FAIR" INDICATES FEW OR NO CLOUDS BELOW 12,000 FEET WITH NO
       SIGNIFICANT WEATHER AND/OR OBSTRUCTIONS TO VISIBILITY.
       CURRENT SKY AND/OR WEATHER CONDITIONS ARE NOT AVAILABLE FOR
       CHILLICOTHE AND FARMINGTON.

MOZ001>031-035>038-043-044-053-054-052300-
...NORTHERN AND WESTERN MISSOURI...

CITY           SKY/WX    TMP DP  RH WIND       PRES   REMARKS
KANSAS CTY INT CLOUDY    40  22  48 S7        30.29F
KANSAS C DTWN  CLOUDY    44  20  38 CALM      30.30F
LEE`S SUMMIT   CLOUDY    42  21  43 SW3       30.31F
ST JOSEPH      CLOUDY    39  23  52 S9        30.29F
CHILLICOTHE      N/A     37  22  54 VRB5      30.35S
KIRKSVILLE     CLOUDY    35  16  45 SE6       30.33F

$$
MOZ066>068-077>081-088>096-101>105-052300-
...SOUTHWEST MISSOURI...

CITY           SKY/WX    TMP DP  RH WIND       PRES   REMARKS
SPRINGFIELD    SUNNY     50  18  28 SW12      30.30S
JOPLIN         MOSUNNY   51  19  28 SW12      30.31F

$$
MOZ032>034-039>042-045>050-055>058-069>072-052300-
...CENTRAL MISSOURI...

CITY           SKY/WX    TMP DP  RH WIND       PRES   REMARKS
COLUMBIA       SUNNY     42  14  32 W3        30.34R
JEFFERSON CITY SUNNY     43  19  38 E5        30.35S
ROLLA          SUNNY     44  18  35 CALM      30.30S
SEDALIA        SUNNY     45  18  34 CALM      30.33F
WHITEMAN AFB   MOSUNNY   44  21  40 VRB3      30.31F
WARRENSBURG    PTSUNNY   43  21  42 CALM      30.32S
OSAGE BEACH    SUNNY     46  19  34 CALM      30.32F

$$
MOZ051-052-059>065-052300-
...EAST CENTRAL MISSOURI...

CITY           SKY/WX    TMP DP  RH WIND       PRES   REMARKS
ST LOUIS INTL  CLOUDY    41  15  35 CALM      30.38S
SPIRIT OF STL  MOSUNNY   42  17  36 NE3       30.35F
ST CHARLES     MOSUNNY   40  19  43 CALM      30.36F

$$
MOZ072>076-082>087-097>100-106>115-052300-
...SOUTH CENTRAL AND SOUTHEAST MISSOURI...

CITY           SKY/WX    TMP DP  RH WIND       PRES   REMARKS
CAPE GIRARDEAU PTSUNNY   49  21  33 SW7       30.36S
FARMINGTON     SUNNY     48  15  26 NW6       30.34S
POPLAR BLUFF   MOSUNNY   51  22  31 S10       30.34F
WEST PLAINS    SUNNY     51  14  22 SW8       30.32F

$$




USA.gov is the U.S. government's official web portal to all federal, state and local government web resources and services.